STARLINK-36855, 68121

Orbit data source: Space-Track

STARLINK-36855, 68121 is a payload satellite owned by SpaceX/Seattle (US) in SSO that was launched on Sun, 08 Mar 2026 UTC via an FALCON 9 launch vehicle from the Air Force Western Test Range (AFWTR). Payload-class satellites include a variety of spacecraft equipped with specific instruments for various scientific and technological missions. These include communications satellites like Starlink; space stations such as the ISS; scientific satellites like the Hubble; Earth observation satellites from companies like Planet Labs, Umbra, and HawkEye 360; GPS; miniature CubeSats for education and research; and military/defense satellites.

Loading next visibility...
Identifier
68121, 2026-044W
Orbit
SSO
Country
Flag of USUS
Related business
Manufacturer
SpaceX/Seattle
Mission
Operational Commercial Communications
Bus & Motor
STARLINK V2MO, Unknown motor
Mass
575 kg wet, ~530 kg dry
Launch date (UTC)
2026-03-08 (6 months ago)
Launch vehicle
FALCON 9
Launch site
Air Force Western Test Range (AFWTR)
Object type
Payload
Rocket body
Debris
Shape & HBR
Box + 1 Pan, 17.7 m
Radar Cross Section
41.120 m², Large (>1 m²)

Expand to show TLE details & history
Last TLE update: 13 hours ago

TLE from 13 hours ago
0 STARLINK-36855
1 68121U 26044W   26246.87798608  .00019167  00000-0  59451-3 0  9998
2 68121  97.2839 206.1099 0001986  87.0755 273.0715 15.33445104 28893
Epoch: 2026-09-03T21:04Z
TLE epoch observation values (Epoch: 2026-09-03T21:04:17.997Z)
Latitude
-0.00001°
Longitude
-92.97493°
Altitude
468.582 km
Speed
7.632 km/s
True Right ascension
13h 44m 26s
True Declination
0° 00' 00"
Sunlit
Object was in daylight at epoch
Visualization orbit readout
Latitude
Unknown
Longitude
Unknown
Altitude
Unknown
Speed
Unknown
Apparent Right ascension
Unknown
Apparent Declination
Unknown
Sunlit
N/A
Visualization observer readout
Local Sidereal Time
01:56:43
Azimuth
Unknown
Elevation
Unknown
Doppler factor
Unknown
Orbital elements
Apogee altitude
463.844 km
Perigee altitude
461.127 km
Semi-major axis
6,840.623 km
Eccentricity
0.0002
Inclination
97.2839°
RAAN
206.1099°
Arg. of periapsis
87.0755°
True anomaly
273.04877°
Mean anomaly
273.0715°
Eccentric anomaly
273.06014°
Mean motion
3.83619 °/min
Orbital period
93.84 mins
BSTAR
0.00059451
Loading maneuver chart data...
Computing Atmospheric mass density...
Loading historical data...
Loading historical data...
Loading historical data...
Loading historical data...
Loading historical data...
Loading historical data...
Loading historical data...

Documentation

Showing up to 5 results
|